Wind_Speed
5 5 5 5 5 6 6 7 7 6 6 7 7 6 5 4 4 4 4 4 3 3 2 3 3 3 3 3 4 4 3 1 1 2 3 4 4 4 5 6 6 6 5
5 4 4 5 6 6 7 7 7 7 7 7 7 6 5 4 4 4 4 3 3 2 2 3 3 3 3 3 4 4 2 1 1 1 2 3 4 5 6 6 6 5 5
4 4 4 5 6 6 6 7 8 8 7 7 7 5 4 4 4 3 3 3 2 2 2 2 2 3 3 3 3 3 2 2 1 0 2 3 5 5 6 6 6 5 5
4 4 4 5 6 7 7 7 7 8 7 7 6 5 5 5 4 3 3 3 2 1 1 2 2 2 3 3 3 3 2 2 1 2 2 3 5 5 5 5 4 4 4
4 4 5 6 6 7 7 7 7 7 7 6 6 6 5 5 4 3 3 3 2 2 2 2 2 3 3 3 3 3 2 1 1 2 2 2 3 4 4 4 4 4 5
5 5 6 6 7 7 7 7 7 7 6 6 6 6 5 5 4 3 3 4 3 2 2 2 3 3 3 3 3 2 2 1 1 1 2 2 3 4 4 4 4 4 5
7 7 7 7 7 7 6 7 7 7 6 6 6 6 5 5 5 5 4 4 3 2 3 3 3 3 3 3 3 3 3 2 2 2 3 3 3 4 5 5 5 5 5
8 7 7 7 7 7 7 7 7 7 6 6 6 6 5 5 5 4 4 4 3 3 3 3 3 3 4 4 4 4 4 4 3 3 3 3 3 4 4 4 4 5 5
8 8 8 8 8 7 7 7 6 7 7 6 6 6 5 5 5 4 5 5 4 3 3 3 3 3 3 3 4 3 4 4 4 4 4 4 3 3 3 4 4 4 5
9 8 8 8 8 7 7 7 6 7 7 6 6 6 6 5 4 4 5 4 4 4 3 3 3 3 3 3 3 3 4 5 4 4 4 4 3 3 3 4 3 4 4
9 8 8 8 8 7 7 7 7 7 7 7 6 6 5 5 5 5 5 5 5 5 4 4 4 3 3 3 3 4 4 4 4 4 4 4 3 3 2 2 3 3 3
9 9 8 8 8 7 7 7 7 7 7 7 6 6 6 6 5 5 5 5 5 5 5 5 4 4 4 4 4 4 4 4 5 4 5 4 4 3 2 2 3 3 3
10 10 9 8 8 8 8 8 7 7 7 6 7 6 6 6 6 5 5 5 5 5 5 5 5 5 5 5 5 5 5 5 6 5 5 5 5 4 3 3 3 3 3
10 10 9 9 8 8 8 8 7 7 6 7 6 6 6 6 6 6 5 5 5 4 4 5 6 5 5 5 5 5 5 6 6 5 5 6 6 4 4 4 4 3 3
11 10 9 9 9 8 8 8 7 7 7 7 6 6 6 6 5 5 4 4 4 4 4 5 5 5 5 5 5 5 5 5 6 5 5 6 6 5 5 5 5 5 4
10 10 9 9 9 9 9 9 8 7 7 7 7 6 6 6 5 4 4 4 4 3 3 4 4 4 5 5 5 5 5 5 5 5 6 6 6 6 6 6 6 6 5
10 10 9 9 9 9 9 9 8 8 8 8 7 7 6 6 5 4 4 4 3 3 3 3 4 4 5 5 5 5 5 5 5 5 6 6 6 6 6 6 5 5 5
10 10 10 9 9 9 9 9 9 8 8 8 7 7 6 5 5 4 4 4 3 3 3 3 4 4 5 5 5 5 6 5 5 5 6 6 7 7 7 7 7 7 6
9 9 9 9 9 8 8 8 8 8 8 7 6 6 6 5 4 4 4 3 3 3 3 3 4 4 5 6 6 6 6 5 6 7 7 7 7 7 8 8 7 7 8
7 8 8 8 8 8 8 8 7 7 7 7 6 5 5 4 4 4 3 3 3 3 3 3 4 4 5 6 6 6 6 7 7 7 7 7 7 7 8 8 7 8 8
6 6 7 7 7 7 7 7 7 7 6 6 5 5 4 4 3 2 3 3 3 4 3 2 3 3 4 4 5 6 7 7 8 8 8 7 8 8 8 8 8 8 8
5 5 5 6 6 5 5 5 6 6 6 5 5 4 4 3 2 1 2 2 2 2 2 2 2 3 3 4 5 6 7 8 8 9 8 8 8 8 9 9 9 9 9
6 5 4 4 4 4 4 4 4 5 5 4 4 3 2 1 1 2 2 2 1 1 2 2 3 3 3 4 5 6 7 8 8 8 8 8 8 9 9 10 10 10 10
6 5 5 4 4 4 3 3 3 3 3 3 2 2 2 1 1 1 2 2 2 2 2 2 3 4 4 5 6 6 7 7 8 7 8 8 9 9 10 10 10 10 10
5 4 4 4 3 3 3 3 2 1 1 1 1 0 0 1 1 2 2 3 3 3 3 3 4 5 6 6 6 6 7 7 7 7 8 9 9 10 10 10 11 11 11
5 4 3 3 3 2 2 1 1 1 1 2 2 2 2 2 2 3 3 3 4 4 4 5 5 6 6 6 6 7 7 8 8 9 9 9 10 11 11 11 11 11 11
Wind_Direction
90 87 87 99 100 102 105 104 107 104 108 111 109 102 103 93 85 84 95 105 106 100 100 81 73 63 53 51 40 39 47 76 146 193 213 221 226 230 232 231 231 237 232
89 90 96 103 106 110 112 114 114 108 109 109 105 101 96 95 85 88 90 93 96 99 90 62 61 62 53 52 45 55 64 109 153 230 242 245 250 246 242 240 236 242 228
88 96 98 102 109 114 112 107 105 103 100 104 102 97 92 92 87 92 82 91 89 97 97 69 62 56 51 54 43 49 61 84 97 307 276 260 252 248 249 252 248 248 237
82 96 103 105 109 116 115 112 105 105 105 102 101 92 90 91 94 97 79 84 84 95 100 84 61 50 41 46 44 44 42 39 18 326 298 271 252 246 250 259 254 250 242
89 97 103 109 111 115 116 114 109 110 110 108 101 90 89 89 91 91 77 83 88 108 102 86 64 53 43 32 25 37 40 26 336 310 299 270 262 257 257 260 259 254 246
97 101 103 108 113 115 118 118 114 111 108 105 99 93 93 91 93 89 78 77 88 108 90 69 63 58 41 28 22 22 24 3 320 313 312 292 287 270 262 266 268 259 254
94 104 107 106 108 115 120 123 120 115 110 106 100 92 92 89 95 90 82 84 89 92 83 72 64 51 34 36 36 31 21 12 359 336 324 309 292 278 277 268 261 259 257
92 98 100 100 107 113 120 125 123 118 111 107 100 92 84 80 91 85 78 88 85 76 77 71 63 54 57 52 42 37 34 21 3 346 330 317 311 299 285 268 261 261 266
96 96 97 101 103 108 116 122 122 118 111 108 102 96 91 85 85 85 87 85 84 83 75 68 55 56 58 45 34 35 27 17 13 5 358 344 330 310 290 284 280 281 274
97 96 99 100 103 106 110 113 115 116 111 109 105 99 94 91 87 95 94 85 84 83 73 61 61 64 56 35 29 28 19 15 18 13 2 351 337 316 297 291 295 299 294
96 96 99 103 104 107 112 111 112 112 111 108 106 103 98 97 103 102 95 86 78 75 68 57 53 52 39 29 19 12 7 11 13 11 11 2 348 328 307 304 306 296 300
95 96 97 100 100 104 112 112 112 113 110 107 106 104 104 107 105 99 92 85 76 72 65 58 52 43 33 29 26 23 14 7 10 13 12 3 354 347 339 328 313 313 313
90 90 90 95 97 99 108 115 114 112 109 109 109 106 106 107 101 96 89 80 71 66 61 59 53 45 39 30 24 23 16 15 18 19 14 9 10 16 13 346 326 322 315
85 88 89 91 97 99 106 114 114 110 105 109 109 108 109 108 101 95 91 81 72 65 62 52 46 48 46 36 27 22 20 14 19 12 9 9 12 20 14 357 348 333 323
82 86 86 89 95 98 100 106 108 109 108 111 112 109 111 108 104 99 91 78 69 68 58 45 43 41 38 31 24 20 20 18 24 14 12 11 13 8 4 350 341 341 329
80 81 82 85 93 97 101 102 104 107 109 108 109 111 112 108 104 98 84 78 68 58 46 42 38 34 34 31 23 20 20 14 13 13 5 4 6 3 358 355 343 338 330
78 80 81 83 92 97 102 104 106 104 105 108 105 107 108 106 98 93 80 75 62 52 45 39 34 34 33 29 22 17 14 9 6 8 7 5 359 352 350 347 343 332 324
78 80 82 85 92 94 96 99 101 101 103 106 102 103 105 104 94 88 82 69 51 43 43 40 40 35 30 29 26 20 11 4 359 4 3 1 357 356 353 352 346 341 334
79 82 84 86 88 91 93 95 96 99 102 105 102 103 103 101 91 88 82 71 59 51 49 48 44 40 35 31 25 21 14 5 359 1 2 2 1 359 356 353 347 343 337
76 83 87 89 90 95 96 98 100 104 104 102 97 96 90 88 79 77 75 76 60 49 47 40 42 39 37 31 26 21 16 11 6 2 356 356 359 360 359 354 347 341 334
74 81 88 91 90 93 98 101 103 106 108 105 102 94 86 78 74 74 78 70 56 49 44 38 33 28 30 23 20 16 9 4 5 2 358 359 358 355 354 351 347 343 337
77 82 84 86 89 91 99 106 106 110 110 108 105 91 76 68 62 65 74 67 59 34 28 35 25 15 10 1 358 354 354 354 357 1 1 360 356 355 354 351 348 347 343
67 75 84 81 85 88 96 115 115 115 114 109 102 90 75 52 40 37 35 30 5 351 360 355 0 352 346 342 345 346 346 345 349 353 357 357 354 351 348 346 343 341 341
62 66 68 69 71 75 95 115 120 118 117 114 102 81 76 69 355 332 338 349 334 320 321 326 332 328 322 324 328 334 340 344 345 345 343 341 343 347 350 348 346 346 344
54 61 61 61 59 59 78 93 85 117 132 137 146 125 110 346 313 307 311 317 316 318 320 313 317 318 316 316 322 330 337 338 337 339 342 340 342 342 341 342 344 345 343
34 41 49 49 44 41 47 42 24 344 260 253 259 268 285 305 312 299 304 310 316 311 309 314 311 310 314 315 318 323 328 329 329 329 329 330 331 332 333 333 335 338 338
Height
5875 5875 5875 5875 5876 5876 5876 5877 5877 5878 5879 5879 5880 5881 5882 5882 5883 5884 5884 5884 5885 5885 5885 5886 5886 5886 5886 5885 5884 5882 5880 5880 5880 5882 5884 5885 5886 5887 5887 5888 5888 5888 5889
5875 5875 5876 5876 5876 5877 5877 5878 5878 5879 5880 5881 5881 5882 5883 5883 5884 5884 5885 5885 5885 5886 5885 5886 5887 5887 5886 5886 5885 5883 5882 5882 5882 5883 5884 5885 5885 5886 5887 5887 5887 5888 5888
5875 5876 5876 5877 5877 5878 5879 5879 5880 5880 5881 5882 5882 5883 5884 5884 5885 5885 5886 5886 5886 5886 5886 5887 5887 5887 5887 5886 5886 5884 5883 5883 5883 5884 5884 5884 5885 5886 5886 5886 5887 5887 5887
5876 5876 5877 5877 5878 5879 5879 5880 5881 5881 5882 5883 5884 5884 5885 5885 5886 5886 5886 5887 5887 5887 5887 5887 5888 5887 5887 5887 5886 5886 5885 5885 5885 5884 5884 5884 5885 5885 5885 5885 5886 5886 5886
5876 5877 5877 5878 5879 5879 5880 5881 5882 5882 5883 5884 5885 5885 5885 5886 5887 5887 5887 5887 5888 5888 5888 5888 5888 5888 5887 5887 5887 5886 5886 5885 5885 5885 5885 5884 5885 5884 5885 5885 5885 5885 5885
5877 5877 5878 5878 5879 5880 5881 5882 5882 5883 5884 5885 5886 5886 5886 5887 5887 5888 5888 5888 5888 5888 5888 5888 5888 5888 5888 5887 5887 5886 5886 5885 5885 5885 5885 5884 5884 5884 5884 5884 5884 5884 5884
5878 5878 5879 5879 5880 5880 5882 5883 5883 5884 5885 5886 5887 5887 5887 5888 5888 5888 5888 5888 5889 5889 5889 5889 5889 5889 5888 5888 5887 5887 5886 5886 5885 5885 5884 5884 5883 5883 5883 5883 5883 5883 5883
5879 5879 5879 5880 5881 5881 5882 5883 5884 5885 5886 5887 5887 5888 5888 5888 5889 5889 5889 5889 5890 5890 5890 5889 5889 5889 5889 5888 5888 5887 5886 5886 5885 5884 5884 5883 5883 5883 5882 5882 5882 5882 5882
5879 5880 5880 5881 5881 5882 5883 5884 5885 5886 5887 5888 5888 5889 5889 5889 5890 5890 5890 5890 5890 5891 5890 5890 5890 5890 5889 5889 5888 5887 5887 5886 5885 5884 5883 5883 5882 5882 5882 5881 5881 5881 5881
5880 5881 5881 5882 5882 5883 5884 5885 5886 5887 5888 5888 5889 5889 5890 5890 5890 5891 5891 5891 5891 5891 5891 5891 5890 5890 5890 5889 5888 5888 5887 5886 5885 5884 5884 5883 5882 5881 5881 5881 5881 5880 5880
5882 5882 5883 5883 5884 5884 5885 5886 5887 5888 5889 5889 5890 5890 5890 5891 5891 5891 5892 5892 5892 5892 5891 5891 5891 5891 5890 5889 5889 5888 5887 5887 5886 5885 5884 5883 5882 5880 5880 5880 5880 5880 5880
5884 5884 5884 5884 5885 5886 5886 5887 5888 5889 5890 5890 5891 5891 5891 5892 5892 5892 5893 5893 5893 5893 5892 5892 5891 5891 5891 5890 5890 5889 5888 5887 5886 5885 5884 5883 5881 5879 5879 5879 5880 5880 5879
5886 5886 5886 5886 5886 5887 5888 5888 5889 5890 5891 5891 5892 5892 5892 5893 5893 5893 5894 5894 5894 5894 5893 5893 5892 5892 5891 5891 5890 5889 5888 5887 5886 5885 5884 5883 5881 5880 5879 5880 5879 5879 5879
5888 5888 5888 5888 5888 5888 5889 5889 5890 5891 5891 5892 5893 5893 5893 5894 5894 5894 5895 5895 5895 5894 5894 5894 5893 5893 5892 5891 5891 5890 5889 5888 5887 5885 5885 5884 5882 5881 5881 5880 5880 5879 5879
5890 5890 5890 5889 5889 5890 5890 5890 5891 5892 5892 5893 5893 5894 5894 5895 5895 5896 5896 5896 5896 5895 5895 5895 5894 5893 5893 5892 5891 5890 5889 5888 5887 5885 5885 5884 5883 5882 5881 5881 5880 5879 5878
5892 5892 5892 5891 5891 5891 5891 5892 5892 5893 5893 5894 5894 5895 5895 5896 5896 5896 5897 5897 5896 5896 5896 5895 5895 5894 5893 5892 5892 5891 5890 5889 5888 5887 5886 5885 5884 5883 5882 5881 5880 5879 5878
5894 5894 5893 5893 5893 5893 5893 5893 5894 5894 5894 5895 5895 5896 5896 5897 5897 5897 5897 5897 5897 5897 5896 5896 5895 5895 5894 5893 5892 5891 5890 5890 5888 5887 5887 5885 5884 5883 5882 5881 5879 5878 5877
5896 5896 5895 5895 5894 5894 5894 5895 5895 5895 5896 5896 5897 5897 5897 5898 5898 5898 5898 5898 5898 5897 5897 5897 5896 5895 5895 5894 5893 5892 5891 5890 5889 5888 5887 5886 5884 5883 5882 5880 5879 5878 5877
5898 5898 5897 5897 5896 5896 5896 5896 5896 5896 5897 5897 5898 5898 5898 5899 5899 5899 5899 5898 5898 5898 5898 5897 5897 5896 5895 5894 5893 5892 5891 5890 5889 5889 5887 5886 5885 5883 5882 5881 5879 5878 5877
5900 5899 5899 5898 5898 5898 5897 5897 5898 5898 5898 5899 5899 5899 5899 5899 5899 5899 5899 5899 5898 5898 5898 5897 5897 5896 5896 5895 5894 5893 5892 5891 5890 5888 5887 5886 5885 5883 5882 5881 5879 5878 5876
5901 5901 5900 5900 5899 5899 5899 5899 5899 5899 5899 5900 5900 5900 5900 5900 5900 5900 5899 5899 5898 5898 5898 5898 5897 5896 5896 5895 5895 5893 5892 5891 5890 5889 5887 5886 5885 5883 5882 5880 5879 5878 5876
5902 5902 5901 5901 5901 5901 5900 5900 5900 5900 5900 5900 5901 5901 5900 5900 5900 5900 5900 5899 5899 5898 5898 5898 5897 5896 5896 5895 5895 5894 5893 5892 5890 5889 5887 5886 5885 5883 5882 5880 5878 5877 5875
5903 5903 5903 5902 5902 5902 5902 5901 5901 5901 5901 5901 5901 5901 5901 5900 5900 5900 5900 5899 5899 5898 5898 5898 5897 5896 5896 5895 5895 5894 5893 5891 5890 5889 5887 5886 5884 5883 5881 5879 5877 5876 5874
5904 5904 5904 5903 5903 5902 5902 5902 5902 5902 5902 5902 5901 5901 5901 5900 5900 5900 5899 5899 5899 5898 5898 5897 5897 5896 5896 5895 5894 5893 5892 5891 5890 5888 5887 5885 5884 5882 5880 5879 5877 5875 5873
5905 5905 5904 5904 5903 5903 5903 5903 5903 5902 5902 5902 5902 5901 5901 5900 5900 5899 5899 5899 5898 5898 5897 5897 5896 5896 5895 5894 5893 5892 5891 5890 5889 5888 5886 5885 5883 5881 5880 5878 5876 5874 5872
5906 5905 5904 5904 5904 5903 5903 5903 5903 5902 5902 5902 5901 5901 5901 5900 5900 5899 5898 5898 5897 5897 5897 5896 5895 5895 5894 5893 5892 5891 5890 5889 5888 5886 5885 5884 5882 5880 5878 5877 5875 5873 5871